Regional Weather Roundup
Issued by NWS Little Rock, AR

Home | Current Version | Previous Version | Graphics & Text | Print | Product List | Glossary On
Versions: 1 2 3 4 5 6 7 8 9 10 11 12 13 14 15 16 17 18 19 20 21 22 23 24 25 26 27
000
ASUS44 KLZK 232305
RWRLZK

WEATHER ROUNDUP FOR ARKANSAS
NATIONAL WEATHER SERVICE LITTLE ROCK AR
600 PM CDT SAT JUL 23 2016

NOTE: "FAIR" INDICATES FEW OR NO CLOUDS BELOW 12,000 FEET WITH NO
SIGNIFICANT WEATHER AND/OR OBSTRUCTIONS TO VISIBILITY.

ARZ001-003-010-029-240000-
NORTHWEST ARKANSAS

CITY           SKY/WX    TMP DP  RH WIND       PRES   REMARKS
FAYETTEVILLE   SUNNY     93  74  53 S7        29.92F HX 103
FORT SMITH     PTSUNNY   96  69  41 SE12G20   29.87S HX 102
HARRISON       SUNNY     94  72  48 E6        29.93F HX 102
BENTONVILLE    SUNNY     95  70  43 W3        29.94F HX 101
ROGERS         MOSUNNY   94  74  52 E5        29.94F HX 104
SILOAM SPGS    SUNNY     97  70  41 SW5       29.94F HX 103
HIGHFILL       SUNNY     94  74  52 S5        29.92F HX 104
SPRINGDALE     MOSUNNY   93  73  52 NE5       29.94F HX 102
$$

ARZ004-005-016-240000-
NORTH CENTRAL ARKANSAS

CITY           SKY/WX    TMP DP  RH WIND       PRES   REMARKS
BATESVILLE     CLOUDY    88  73  62 E10       29.92R THUNDER HX  96
FLIPPIN        SUNNY     97  72  44 CALM      29.88R HX 105
MTN HOME       SUNNY     94  74  52 VRB5      29.90S HX 104
$$

ARZ040-041-240000-
WEST CENTRAL ARKANSAS

CITY           SKY/WX    TMP DP  RH WIND       PRES   REMARKS
MENA           CLOUDY    81  77  89 CALM      29.93F HX  88
MOUNT IDA      CLOUDY    82  77  84 CALM      29.90F HX  90
$$

ARZ009-017-025-026-028-240000-
NORTHEAST ARKANSAS

CITY           SKY/WX    TMP DP  RH WIND       PRES   REMARKS
CORNING          N/A     95  75  52 NE7       29.90S HX 107
JONESBORO      CLOUDY    88  77  69 S14       29.90S HX 100
NEWPORT        CLOUDY    84  74  72 S13       29.92R HX  91
WALNUT RIDGE   CLOUDY    90  79  70 S10       29.89R HX 105
BLYTHEVILLE    MOSUNNY   92  76  59 CALM      29.90F HX 104
$$

ARZ022-023-033-042-044-240000-
CENTRAL ARKANSAS

CITY           SKY/WX    TMP DP  RH WIND       PRES   REMARKS
LITTLE ROCK    CLOUDY    80  72  76 SE15      29.91S THUNDER
N LITTLE ROCK    N/A     78  70  76 E15G33    29.86F
JACKSONVILLE   TSTM      74  70  86 SE9       29.90F
SEARCY         CLOUDY    78  71  79 CALM      29.92F
HOT SPRINGS    CLOUDY    80  74  81 NW3       29.91F HX  85
RUSSELLVILLE   CLOUDY    92  77  61 S5        29.88R HX 105
$$

ARZ036-240000-
EAST ARKANSAS

CITY           SKY/WX    TMP DP  RH WIND       PRES   REMARKS
WEST MEMPHIS   CLOUDY    83  75  77 SW3       29.91F HX  90
$$

ARZ050-053-066-070-073-240000-
SOUTHWEST ARKANSAS

CITY           SKY/WX    TMP DP  RH WIND       PRES   REMARKS
CAMDEN         CLOUDY    77  68  73 NW5       29.91S
TEXARKANA      LGT RAIN  76  72  87 SW5       29.92F
EL DORADO      CLOUDY    80  71  74 CALM      29.91S
DE QUEEN       CLOUDY    88  75  65 NE3       29.89F HX  97
$$

ARZ056-057-069-240000-
SOUTHEAST ARKANSAS

CITY           SKY/WX    TMP DP  RH WIND       PRES   REMARKS
PINE BLUFF     CLOUDY    86  72  62 E5        29.91R HX  92
STUTTGART      CLOUDY    84  70  61 N6        29.93R HX  88
MONTICELLO     TSTM      81  75  82 NE5       29.92R HX  87

$$






USA.gov is the U.S. government's official web portal to all federal, state and local government web resources and services.